sat.trackr.live / text

‹ back to catalog

STARLINK-34364

NORAD 64495 · 2025-133Z

PAYLOAD ACTIVE UNKNOWN

§ Identity

Operator
Country
US
Launch date
2025-06-23
Launch site
AFETR
Launch vehicle
Mass (kg)
RCS (m²)

Purposes: comms

External: N2YO · Heavens-Above · Gunter

§ Orbital elements

Epoch: 2026-09-20T13:08:32.600256Z

Period
93.85 min
Inclination
53.1572°
Eccentricity
0.0001268
Mean motion
15.34399846 rev/d
Perigee alt
461.8 km
Apogee alt
463.6 km
Semi-major
6,840.8 km
B*
4.1325e-4
RAAN
285.1763°
Arg perigee
127.3722°
Mean anomaly
232.7397°
Rev number
7,111

§ Raw data

STARLINK-343641 64495U 25133Z   26263.54759954  .00013611  00000+0  41325-3 0  99982 64495  53.1572 285.1763 0001268 127.3722 232.7397 15.34399846 71111

JSON: /api/v1/satellites/64495 · /tle

For live sub-satellite position, see the globe view (requires WebGL).

§ Visibility from observer

Set your observer location to see the next 7 days of passes ≥ 10°. The values pass through the URL so the page stays shareable.

No JS? Fill the form by hand. The geolocation button needs JavaScript.